Location: Napoli
(40.8639°N, 14.2562°E)
Time: 08:04:32
(UTC+01:00)

ISS - Visible Passes

Search period start: 16 December 2017 00:00
Search period end: 26 December 2017 00:00
Orbit: 402 x 406 km, 51.6° (Epoch: 16 December)

Date Brightness Start Highest point End Pass type
(mag) Time Alt. Az. Time Alt. Az. Time Alt. Az.
16 Dec -3.8 17:05:15 10° NW 17:08:32 65° NE 17:11:48 10° ESE visible
16 Dec -0.7 18:42:53 10° W 18:44:39 14° SW 18:46:23 10° SSW visible
17 Dec -1.5 17:49:48 10° WNW 17:52:36 26° SW 17:55:22 10° SSE visible
19 Dec -0.1 17:43:21 10° WSW 17:44:14 11° SW 17:45:06 10° SW visible
